Flag for Germany Weather past 2 weeks in Bühl, Baden-Württemberg, Germany

Now
55 °F

Partly sunny.


Feels Like: 55 °F
Forecast: 46 / 60 °F
Wind: 3 mph from North

Location: Karlsruhe - Baden Wurttemberg

Current Time: Oct 25, 2014 at 1:26:57 PM

Latest Report: Oct 25, 2014 at 12:50 PM


Visibility: N/A

Pressure: 30.15 "Hg

Humidity: 67%

Dew point: 45 °F

Location of BühlLocation

Historic Weather in Bühl — Graph

°F

Bühl temperature yesterday

Maximum temperature yesterday: 57 °F (at 3:50 PM)
Minimum temperature yesterday: 36 °F (at 6:20 AM)
Average temperature yesterday: 46 °F

Past Weeks' High & Low Weather Summary

 TemperatureHumidityPressure
High75 °F (Oct 19, 2:50 PM)100% (Oct 12, 5:50 AM)30.30 "Hg (Oct 12, 5:50 AM)
Low36 °F (Oct 24, 6:20 AM)50% (Oct 19, 3:50 PM)29.65 "Hg (Oct 21, 5:20 PM)
Average57 °F82%29.99 "Hg
* Reported Oct 10 12:20 PM — Oct 25 12:20 PM, Bühl, Weather by CustomWeather, © 2014

Note: Actual official high and low records may vary slightly from our data, if they occured in-between our weather recording intervals... More about our weather records

Advertising

Bühl weather history for previous 24 hours

 ConditionsComfort  
Time TempWeatherWind HumidityBarometerVisibility
12:20 PM
Oct 25
55 °FBroken clouds.6 mph72%30.15 "HgN/A
11:50 AM54 °FPartly sunny.5 mph77%30.15 "HgN/A
11:20 AM54 °FPartly sunny.6 mph77%30.15 "HgN/A
10:50 AM52 °FPartly sunny.5 mph82%30.15 "HgN/A
10:20 AM50 °FPartly sunny.2 mph88%30.15 "HgN/A
9:50 AM50 °FPartly sunny.2 mph88%30.12 "HgN/A
9:20 AM50 °FPartly sunny.3 mph88%30.12 "HgN/A
8:50 AM48 °FPassing clouds.2 mph94%30.12 "HgN/A
8:20 AM48 °FPassing clouds.3 mph94%30.12 "Hg5 mi
7:50 AM48 °FPassing clouds.5 mph94%30.09 "Hg5 mi
7:20 AM48 °FFog.2 mph87%30.09 "Hg5 mi
6:50 AM48 °FPassing clouds.3 mph87%30.09 "HgN/A
6:20 AM48 °FPartly cloudy.2 mph94%30.09 "HgN/A
5:50 AM48 °FPartly cloudy.2 mph94%30.09 "HgN/A
5:20 AM48 °FSprinkles. Partly cloudy.1 mph94%30.09 "HgN/A
4:50 AM48 °FSprinkles. Partly cloudy.1 mph87%30.09 "HgN/A
11:20 PM
Oct 24
46 °FClear.No wind93%30.12 "Hg10 mi
10:50 PM48 °FClear.2 mph87%30.12 "Hg10 mi
10:20 PM48 °FClear.No wind87%30.12 "Hg10 mi
9:50 PM48 °FClear.No wind87%30.12 "Hg10 mi
9:20 PM48 °FClear.1 mph87%30.12 "Hg10 mi
8:50 PM46 °FClear.5 mph87%30.12 "Hg10 mi
8:20 PM48 °FClear.No wind87%30.09 "Hg10 mi
7:50 PM50 °FClear.1 mph76%30.09 "Hg10 mi
7:20 PM50 °FSunny.2 mph76%30.09 "Hg10 mi
6:50 PM50 °FSunny.2 mph76%30.09 "Hg10 mi
6:20 PM52 °FSunny.5 mph77%30.09 "Hg10 mi
5:50 PM54 °FSunny.6 mph72%30.12 "Hg10 mi
5:20 PM55 °FPassing clouds.5 mph67%30.12 "HgN/A
4:50 PM54 °FSunny.5 mph72%30.12 "Hg10 mi
4:20 PM55 °FSunny.2 mph67%30.12 "Hg10 mi
3:50 PM57 °FSunny.1 mph63%30.12 "Hg10 mi
3:20 PM55 °FSunny.2 mph67%30.12 "Hg10 mi
2:50 PM55 °FSunny.1 mph72%30.15 "Hg10 mi
2:20 PM52 °FSunny.2 mph77%30.15 "Hg10 mi
1:50 PM50 °FSunny.3 mph88%30.18 "Hg10 mi
1:20 PM48 °FPassing clouds.2 mph94%30.18 "Hg6 mi
Weather by CustomWeather, © 2014

See weather overviewHow to use our weather pages